Orbital Elements at Epoch 2459200.5 (2020-Dec-17.0) TDB
Reference: JPL 30 (heliocentric ecliptic J2000)
Element | Value | Uncertainty (1-sigma) | Units |
e | .08047188213712665 | 5.0105e-08 | |
a | 2.614318193357504 | 1.4417e-08 | au |
q | 2.403939087832693 | 1.3635e-07 | au |
i | 8.461869457159972 | 4.1992e-06 | deg |
node | 277.0557984395579 | 3.5954e-05 | deg |
peri | 46.14987637280385 | 4.4962e-05 | deg |
M | 283.9728539393115 | 2.8378e-05 | deg |
tp | 2459526.563572073481 (2021-Nov-08.06357207) | 0.00012208 | TDB |
period | 1543.960177760091 4.23 | 1.2771e-05 3.497e-08 | d yr |
n | .2331666355036903 | 1.9287e-09 | deg/d |
Q | 2.824697298882314 | 1.5577e-08 | au |
|
| | Orbit Determination Parameters
Additional Information
|